FW0225 Weather Reports


Display with metric or nautical units.
time (UTC)temp
F
wind
direction
speed
MPH
gust
MPH
rain 1hr
in
rain 24hr
in
rain mn
in
humidity
%
barometer
mb
20260510112028 74 208 4.0 5.0 0.00 0.00 0.00 56 1012.9
20260510111530 74 209 2.0 5.0 0.00 0.00 0.00 56 1012.9
20260510111030 74 196 3.0 5.0 0.00 0.00 0.00 56 1012.9
20260510110517 74 179 2.0 5.0 0.00 0.00 0.00 56 1012.9
20260510110030 74 180 1.0 6.0 0.00 0.00 0.00 60 1013.0
20260510105513 73 192 4.0 8.0 0.00 0.00 0.00 59 1013.2
20260510105031 74 213 5.0 8.0 0.00 0.00 0.00 58 1013.2
20260510104515 74 216 4.0 6.0 0.00 0.00 0.00 56 1013.2
20260510104015 74 205 3.0 9.0 0.00 0.00 0.00 56 1013.1
20260510103518 74 211 3.0 9.0 0.00 0.00 0.00 56 1013.3
20260510103050 74 196 3.0 9.0 0.00 0.00 0.00 56 1013.2
20260510102552 74 171 4.0 9.0 0.00 0.00 0.00 55 1013.2
20260510102031 74 193 1.0 8.0 0.00 0.00 0.00 59 1013.2
20260510101516 74 235 5.0 8.0 0.00 0.00 0.00 57 1013.3
20260510101017 74 156 3.0 8.0 0.00 0.00 0.00 59 1013.3
20260510100522 73 252 2.0 9.0 0.00 0.00 0.00 59 1013.3
20260510100013 73 200 4.0 9.0 0.00 0.00 0.00 59 1013.4
20260510095515 73 191 3.0 5.0 0.00 0.00 0.00 62 1013.3
20260510095016 73 198 3.0 5.0 0.00 0.00 0.00 59 1013.4
20260510094542 73 117 1.0 3.0 0.00 0.00 0.00 61 1013.4
20260510094026 72 51 1.0 2.0 0.00 0.00 0.00 62 1013.4
20260510093529 71 49 2.0 3.0 0.00 0.00 0.00 65 1013.5
20260510093021 70 49 2.0 3.0 0.00 0.00 0.00 67 1013.6
20260510092546 70 48 2.0 4.0 0.00 0.00 0.00 67 1013.6
20260510092026 70 48 2.0 4.0 0.00 0.00 0.00 67 1013.6
20260510091551 69 47 3.0 4.0 0.00 0.00 0.00 68 1013.6
20260510091031 69 53 2.0 5.0 0.00 0.00 0.00 68 1013.6
20260510090536 68 51 3.0 4.0 0.00 0.00 0.00 70 1013.6
20260510090048 68 53 3.0 4.0 0.00 0.00 0.00 70 1013.7
20260510085532 68 52 3.0 4.0 0.00 0.00 0.00 70 1013.7
20260510085054 67 53 2.0 4.0 0.00 0.00 0.00 70 1013.8
20260510084515 67 53 3.0 4.0 0.00 0.00 0.00 71 1013.7
20260510084035 67 53 2.0 4.0 0.00 0.00 0.00 71 1013.8
20260510083517 67 52 2.0 3.0 0.00 0.00 0.00 70 1013.8
20260510083030 67 52 2.0 4.0 0.00 0.00 0.00 71 1013.8
20260510082532 67 52 2.0 4.0 0.00 0.00 0.00 71 1013.8
20260510082033 66 53 2.0 3.0 0.00 0.00 0.00 71 1013.9
20260510081516 66 53 2.0 3.0 0.00 0.00 0.00 71 1013.9
20260510081016 66 53 2.0 3.0 0.00 0.00 0.00 71 1014.0
20260510080539 66 53 3.0 4.0 0.00 0.00 0.00 70 1013.9
20260510080014 66 53 2.0 4.0 0.00 0.00 0.00 70 1013.9
20260510075537 66 53 1.0 4.0 0.00 0.00 0.00 70 1013.9
20260510075016 65 53 1.0 5.0 0.00 0.00 0.00 72 1014.0
20260510074520 65 55 3.0 5.0 0.00 0.00 0.00 71 1014.0
20260510074021 65 53 2.0 5.0 0.00 0.00 0.00 71 1014.0
20260510073523 65 57 3.0 6.0 0.00 0.00 0.00 72 1013.9
20260510073036 65 57 2.0 8.0 0.00 0.00 0.00 72 1013.9
20260510072519 65 34 3.0 8.0 0.00 0.00 0.00 74 1013.9
20260510072018 64 300 1.0 4.0 0.00 0.00 0.00 74 1013.9
20260510071520 64 297 2.0 5.0 0.00 0.00 0.00 75 1013.9
20260510071020 63 289 1.0 3.0 0.00 0.00 0.00 77 1014.0
20260510070522 62 289 2.0 3.0 0.00 0.00 0.00 77 1014.0
20260510070014 62 289 1.0 3.0 0.00 0.00 0.00 77 1014.0
20260510065517 62 289 2.0 3.0 0.00 0.00 0.00 77 1014.0
20260510065017 62 286 2.0 3.0 0.00 0.00 0.00 78 1014.1
20260510064542 62 284 1.0 2.0 0.00 0.00 0.00 79 1014.2
20260510064041 61 284 0.0 3.0 0.00 0.00 0.00 79 1014.3
20260510063524 61 283 2.0 4.0 0.00 0.00 0.00 79 1014.3
20260510063019 61 277 2.0 6.0 0.00 0.00 0.00 78 1014.4
20260510062523 61 263 2.0 4.0 0.00 0.00 0.00 79 1014.4
20260510062024 61 252 1.0 4.0 0.00 0.00 0.00 80 1014.4
20260510061526 60 252 1.0 3.0 0.00 0.00 0.00 81 1014.4
20260510061027 60 252 2.0 3.0 0.00 0.00 0.00 82 1014.4
20260510060530 60 252 1.0 3.0 0.00 0.00 0.00 82 1014.4
20260510060022 59 252 2.0 3.0 0.00 0.00 0.00 83 1014.5
20260510055526 59 251 1.0 4.0 0.00 0.00 0.00 85 1014.5
20260510055025 59 250 1.0 4.0 0.00 0.00 0.00 85 1014.5
20260510054550 58 248 1.0 5.0 0.00 0.00 0.00 86 1014.6
20260510054026 58 248 2.0 5.0 0.00 0.00 0.00 86 1014.6
20260510053530 58 247 1.0 5.0 0.00 0.00 0.00 87 1014.6
20260510053024 57 245 3.0 4.0 0.00 0.00 0.00 88 1014.6
20260510052529 57 244 2.0 3.0 0.00 0.00 0.00 88 1014.7
20260510052028 57 244 2.0 3.0 0.00 0.00 0.00 89 1014.7
20260510051515 56 243 1.0 4.0 0.00 0.00 0.00 91 1014.8
20260510051035 56 243 2.0 4.0 0.00 0.00 0.00 91 1014.7
20260510050518 55 242 2.0 3.0 0.00 0.00 0.00 92 1014.7
20260510050029 55 242 2.0 3.0 0.00 0.00 0.00 93 1014.8
20260509170518 66 242 1.0 3.0 0.00 0.00 0.00 75 1014.2
20260509170030 66 242 1.0 3.0 0.00 0.00 0.00 75 1014.2
20260509165517 67 242 1.0 3.0 0.00 0.00 0.00 74 1014.2
20260509165015 68 242 2.0 3.0 0.00 0.00 0.00 73 1014.2
20260509164521 68 241 2.0 3.0 0.00 0.00 0.00 71 1014.2
20260509164020 69 241 2.0 3.0 0.00 0.00 0.00 70 1014.1
20260509163542 69 241 2.0 5.0 0.00 0.00 0.00 69 1014.0
20260509163012 69 241 3.0 5.0 0.00 0.00 0.00 63 1014.1
20260509162535 70 246 2.0 5.0 0.00 0.00 0.00 69 1014.0
20260509162014 70 248 2.0 4.0 0.00 0.00 0.00 67 1014.0
20260509161516 70 250 3.0 5.0 0.00 0.00 0.00 67 1014.1
20260509161038 70 248 3.0 5.0 0.00 0.00 0.00 66 1014.1
20260509160521 70 245 2.0 4.0 0.00 0.00 0.00 64 1014.1
20260509160014 70 244 2.0 4.0 0.00 0.00 0.00 67 1014.1
20260509155519 70 241 3.0 4.0 0.00 0.00 0.00 68 1014.0
20260509155020 71 244 2.0 5.0 0.00 0.00 0.00 66 1014.1
20260509154546 71 237 3.0 6.0 0.00 0.00 0.00 67 1014.1
20260509154025 71 240 2.0 6.0 0.00 0.00 0.00 66 1014.1
20260509153528 72 237 1.0 3.0 0.00 0.00 0.00 66 1014.1
20260509153020 73 237 1.0 3.0 0.00 0.00 0.00 61 1014.2
20260509152528 74 237 1.0 3.0 0.00 0.00 0.00 59 1014.2
20260509152049 75 236 1.0 5.0 0.00 0.00 0.00 57 1014.3
20260509151530 76 238 2.0 8.0 0.00 0.00 0.00 53 1014.3
20260509151028 76 223 3.0 8.0 0.00 0.00 0.00 52 1014.2
20260509150512 77 215 1.0 8.0 0.00 0.00 0.00 48 1014.2
20260509150026 77 204 5.0 9.0 0.00 0.00 0.00 47 1014.1
20260509145530 77 263 2.0 7.0 0.00 0.00 0.00 50 1014.1
20260509145031 77 215 2.0 6.0 0.00 0.00 0.00 50 1014.2
20260509144515 77 193 3.0 7.0 0.00 0.00 0.00 48 1014.2
20260509144016 78 211 4.0 9.0 0.00 0.00 0.00 45 1014.2
20260509143519 79 217 4.0 9.0 0.00 0.00 0.00 44 1014.2
20260509143012 79 214 2.0 8.0 0.00 0.00 0.00 44 1014.2
20260509142537 79 194 4.0 8.0 0.00 0.00 0.00 42 1014.2
20260509142016 79 215 3.0 9.0 0.00 0.00 0.00 43 1014.2
20260509141517 79 251 4.0 9.0 0.00 0.00 0.00 43 1014.2